Location: Home
(42.5358°N, 72.7383°W)
Time: 09:31:46
(UTC-05:00)

S-56A Canister/Altair - Pass Details

Date: 29 November 2021
Orbit: 634 x 2499 km, 38.9° (Epoch: 22 January)

Event Time Altitude Azimuth Distance (km) Brightness Sun altitude
Rises 06:57:18 0° 270° (W) 3,006 10.0 -1.1°
Reaches altitude 10° 07:00:31 10° 247° (WSW) 2,015 9.3 -0.6°
Maximum altitude 07:03:07 15° 211° (SSW) 1,690 9.3 -0.2°
Drops below altitude 10° 07:05:45 10° 175° (S) 2,057 10.3 0.2°
Sets 07:09:07 0° 152° (SSE) 3,106 11.8 0.8°
